TimeCST,TemperatureF,Dew PointF,Humidity,Sea Level PressureIn,VisibilityMPH,Wind Direction,Wind SpeedMPH,Gust SpeedMPH,PrecipitationIn,Events,Conditions,WindDirDegrees,DateUTC
12:15 AM,23.0,19.4,86,30.19,10.0,North,8.1,-,N/A,,Overcast,350,2013-01-01 06:15:00
12:35 AM,23.0,19.4,86,30.19,10.0,North,4.6,-,N/A,,Overcast,10,2013-01-01 06:35:00
12:55 AM,23.0,19.4,86,30.19,10.0,North,8.1,-,N/A,,Overcast,360,2013-01-01 06:55:00
1:15 AM,21.2,19.4,93,30.19,10.0,North,9.2,-,N/A,,Overcast,360,2013-01-01 07:15:00
1:35 AM,21.2,17.6,86,30.20,10.0,North,9.2,-,N/A,,Overcast,350,2013-01-01 07:35:00
1:55 AM,21.2,17.6,86,30.21,10.0,North,8.1,-,N/A,,Overcast,360,2013-01-01 07:55:00
2:15 AM,21.2,17.6,86,30.21,10.0,North,8.1,-,N/A,,Overcast,10,2013-01-01 08:15:00
2:35 AM,21.2,15.8,80,30.22,10.0,North,6.9,-,N/A,,Overcast,350,2013-01-01 08:35:00
2:55 AM,19.4,15.8,86,30.23,10.0,North,5.8,-,N/A,,Overcast,350,2013-01-01 08:55:00
3:15 AM,19.4,14.0,80,30.23,10.0,NNW,6.9,-,N/A,,Overcast,340,2013-01-01 09:15:00
3:35 AM,19.4,14.0,80,30.24,10.0,NNW,4.6,-,N/A,,Mostly Cloudy,330,2013-01-01 09:35:00
3:55 AM,17.6,14.0,86,30.23,10.0,NNW,6.9,-,N/A,,Scattered Clouds,340,2013-01-01 09:55:00
4:15 AM,17.6,14.0,86,30.22,10.0,NNW,6.9,-,N/A,,Clear,340,2013-01-01 10:15:00
4:35 AM,15.8,12.2,86,30.20,10.0,North,5.8,-,N/A,,Clear,350,2013-01-01 10:35:00
4:55 AM,15.8,12.2,86,30.21,10.0,NNW,4.6,-,N/A,,Clear,330,2013-01-01 10:55:00
5:15 AM,15.8,12.2,86,30.22,10.0,Calm,Calm,-,N/A,,Clear,0,2013-01-01 11:15:00
5:35 AM,14.0,10.4,86,30.22,10.0,Calm,Calm,-,N/A,,Clear,0,2013-01-01 11:35:00
5:55 AM,14.0,10.4,86,30.22,10.0,North,3.5,-,N/A,,Clear,360,2013-01-01 11:55:00
6:15 AM,14.0,10.4,86,30.24,10.0,Calm,Calm,-,N/A,,Clear,0,2013-01-01 12:15:00
6:35 AM,14.0,10.4,86,30.24,10.0,North,5.8,-,N/A,,Clear,350,2013-01-01 12:35:00
6:55 AM,12.2,8.6,85,30.25,10.0,NNW,5.8,-,N/A,,Clear,340,2013-01-01 12:55:00
7:15 AM,14.0,8.6,79,30.25,10.0,NNW,4.6,-,N/A,,Clear,330,2013-01-01 13:15:00
7:35 AM,12.2,8.6,85,30.26,10.0,NW,4.6,-,N/A,,Clear,320,2013-01-01 13:35:00
7:55 AM,12.2,8.6,85,30.29,10.0,Calm,Calm,-,N/A,,Clear,0,2013-01-01 13:55:00
8:15 AM,12.2,8.6,85,30.30,10.0,Calm,Calm,-,N/A,,Clear,0,2013-01-01 14:15:00
8:35 AM,12.2,8.6,85,30.30,10.0,Calm,Calm,-,N/A,,Clear,0,2013-01-01 14:35:00
8:55 AM,14.0,8.6,79,30.31,10.0,North,3.5,-,N/A,,Clear,350,2013-01-01 14:55:00
9:15 AM,14.0,8.6,79,30.30,10.0,North,5.8,-,N/A,,Clear,10,2013-01-01 15:15:00
9:35 AM,15.8,8.6,73,30.31,10.0,North,4.6,-,N/A,,Clear,350,2013-01-01 15:35:00
9:55 AM,17.6,8.6,68,30.31,10.0,North,4.6,-,N/A,,Clear,360,2013-01-01 15:55:00
10:15 AM,19.4,8.6,63,30.31,10.0,North,4.6,-,N/A,,Clear,360,2013-01-01 16:15:00
10:35 AM,19.4,8.6,63,30.32,10.0,North,5.8,-,N/A,,Clear,350,2013-01-01 16:35:00
10:55 AM,19.4,10.4,68,30.31,10.0,North,3.5,-,N/A,,Clear,360,2013-01-01 16:55:00
11:15 AM,19.4,8.6,63,30.31,10.0,NNW,4.6,-,N/A,,Clear,330,2013-01-01 17:15:00
11:35 AM,21.2,8.6,58,30.31,10.0,Calm,Calm,-,N/A,,Clear,0,2013-01-01 17:35:00
11:55 AM,21.2,8.6,58,30.30,10.0,North,3.5,-,N/A,,Clear,360,2013-01-01 17:55:00
12:15 PM,21.2,8.6,58,30.29,10.0,North,4.6,-,N/A,,Clear,350,2013-01-01 18:15:00
12:35 PM,21.2,8.6,58,30.28,10.0,NNW,4.6,-,N/A,,Unknown,330,2013-01-01 18:35:00
12:55 PM,23.0,8.6,54,30.28,10.0,NNW,5.8,-,N/A,,Clear,340,2013-01-01 18:55:00
1:15 PM,23.0,8.6,54,30.28,10.0,WNW,5.8,-,N/A,,Clear,290,2013-01-01 19:15:00
1:35 PM,23.0,8.6,54,30.27,10.0,NW,6.9,-,N/A,,Clear,310,2013-01-01 19:35:00
1:55 PM,23.0,10.4,59,30.27,10.0,North,6.9,-,N/A,,Clear,350,2013-01-01 19:55:00
2:15 PM,23.0,10.4,59,30.27,10.0,NW,6.9,-,N/A,,Clear,320,2013-01-01 20:15:00
2:35 PM,23.0,8.6,54,30.27,10.0,NNW,6.9,-,N/A,,Clear,340,2013-01-01 20:35:00
2:55 PM,23.0,10.4,59,30.28,10.0,NNW,5.8,-,N/A,,Clear,330,2013-01-01 20:55:00
3:15 PM,23.0,10.4,59,30.28,10.0,WNW,3.5,-,N/A,,Clear,300,2013-01-01 21:15:00
3:35 PM,23.0,10.4,59,30.27,10.0,NW,4.6,-,N/A,,Clear,310,2013-01-01 21:35:00
3:55 PM,23.0,10.4,59,30.27,10.0,NW,4.6,-,N/A,,Clear,320,2013-01-01 21:55:00
4:15 PM,23.0,8.6,54,30.27,10.0,NW,3.5,-,N/A,,Clear,310,2013-01-01 22:15:00
4:35 PM,23.0,10.4,59,30.27,10.0,NW,4.6,-,N/A,,Clear,310,2013-01-01 22:35:00
4:55 PM,23.0,10.4,59,30.27,10.0,NW,4.6,-,N/A,,Clear,320,2013-01-01 22:55:00
5:15 PM,21.2,10.4,63,30.26,10.0,Calm,Calm,-,N/A,,Clear,0,2013-01-01 23:15:00
5:35 PM,21.2,10.4,63,30.26,10.0,Calm,Calm,-,N/A,,Clear,0,2013-01-01 23:35:00
5:55 PM,19.4,10.4,68,30.27,10.0,Calm,Calm,-,N/A,,Clear,0,2013-01-01 23:55:00
6:15 PM,17.6,10.4,73,30.26,10.0,Calm,Calm,-,N/A,,Clear,0,2013-01-02 00:15:00
6:35 PM,17.6,10.4,73,30.25,10.0,Calm,Calm,-,N/A,,Clear,0,2013-01-02 00:35:00
6:55 PM,14.0,10.4,86,30.25,10.0,Calm,Calm,-,N/A,,Clear,0,2013-01-02 00:55:00
7:15 PM,14.0,10.4,86,30.27,10.0,Calm,Calm,-,N/A,,Clear,0,2013-01-02 01:15:00
7:35 PM,14.0,10.4,86,30.27,10.0,Calm,Calm,-,N/A,,Clear,0,2013-01-02 01:35:00
7:55 PM,14.0,10.4,86,30.26,10.0,Calm,Calm,-,N/A,,Clear,0,2013-01-02 01:55:00
8:15 PM,12.2,8.6,85,30.27,10.0,Calm,Calm,-,N/A,,Clear,0,2013-01-02 02:15:00
8:35 PM,12.2,8.6,85,30.27,10.0,Calm,Calm,-,N/A,,Clear,0,2013-01-02 02:35:00
8:55 PM,12.2,8.6,85,30.26,10.0,Calm,Calm,-,N/A,,Clear,0,2013-01-02 02:55:00
9:15 PM,10.4,8.6,92,30.26,10.0,Calm,Calm,-,N/A,,Clear,0,2013-01-02 03:15:00
9:35 PM,10.4,8.6,92,30.26,10.0,Calm,Calm,-,N/A,,Clear,0,2013-01-02 03:35:00
9:55 PM,10.4,6.8,85,30.26,10.0,Calm,Calm,-,N/A,,Clear,0,2013-01-02 03:55:00
10:15 PM,10.4,8.6,92,30.26,10.0,Calm,Calm,-,N/A,,Clear,0,2013-01-02 04:15:00
10:55 PM,8.6,6.8,92,30.24,10.0,Calm,Calm,-,N/A,,Clear,0,2013-01-02 04:55:00
11:15 PM,8.6,6.8,92,30.24,10.0,Calm,Calm,-,N/A,,Clear,0,2013-01-02 05:15:00
11:55 PM,8.6,5.0,85,30.26,10.0,Calm,Calm,-,N/A,,Clear,0,2013-01-02 05:55:00